Temp
19 19 20 20 20 21 21 21 21 21 21 20 20 20 20 20 19 19 19 19 19 19 19 19 19 19 19 19 18 18 18 18 18 18 18 18 18 18 18 18 18 18 17
19 19 20 20 20 20 20 20 20 20 20 20 20 20 20 19 19 19 19 19 18 19 19 19 19 19 19 18 18 18 18 18 18 18 18 18 18 18 18 18 18 17 17
19 19 19 19 19 20 20 19 19 19 19 19 19 19 19 18 19 19 19 19 18 18 18 18 18 18 18 18 18 18 18 18 18 18 18 18 18 18 18 18 18 17 17
18 18 19 18 18 18 19 18 18 18 18 18 18 18 18 18 18 18 18 18 18 18 18 18 18 18 18 18 18 18 18 18 18 18 18 18 18 17 17 18 18 18 17
18 18 18 18 18 18 18 18 18 18 17 17 18 18 18 18 18 18 18 18 18 18 17 17 17 17 17 18 18 18 18 17 17 17 18 18 18 18 18 17 18 18 17
17 17 18 17 17 17 17 17 17 18 18 17 17 17 17 17 17 17 17 17 17 17 17 17 17 17 17 18 17 17 17 17 17 17 17 17 17 17 17 17 17 17 17
17 17 17 17 17 17 17 17 17 17 17 17 17 17 17 17 17 17 17 17 17 16 16 16 16 16 17 16 16 15 16 16 16 16 16 16 17 17 16 17 17 17 17
17 17 16 16 16 16 16 17 17 17 17 16 16 16 16 17 17 16 16 16 16 16 16 16 16 16 16 16 16 16 16 16 16 16 15 16 16 16 16 17 17 17 17
16 16 15 16 16 16 16 17 17 17 16 17 17 17 17 16 16 16 16 16 16 16 16 16 16 16 16 16 16 16 16 16 16 15 15 16 16 16 15 15 16 16 17
16 16 15 15 16 16 16 16 16 16 16 16 16 16 16 16 16 15 15 15 15 15 15 15 16 15 15 15 15 15 15 16 15 15 14 14 15 14 15 15 15 16 16
15 15 15 15 15 16 16 15 16 16 16 16 16 16 16 15 15 15 15 15 15 15 15 15 15 15 15 15 14 14 14 14 14 14 14 14 13 13 14 14 14 14 16
16 15 15 15 15 15 16 15 15 15 16 16 16 16 16 15 15 14 14 14 14 14 14 14 14 14 14 14 14 14 13 13 13 12 11 10 12 13 13 12 13 13 15
16 15 15 15 15 15 15 15 16 16 16 16 15 15 15 15 14 14 14 13 13 13 13 13 13 13 13 13 12 12 12 12 11 10 9 9 10 11 11 12 11 12 12
15 15 14 14 15 15 15 15 15 15 15 15 14 14 14 14 14 13 12 12 12 11 12 12 12 12 12 11 11 11 11 11 10 9 9 8 8 9 9 10 10 11 11
15 14 14 14 14 14 14 14 14 14 14 14 14 13 14 14 13 12 11 11 11 11 11 11 12 12 12 11 10 10 9 8 8 8 8 6 7 6 7 8 8 8 9
14 14 14 14 14 14 14 13 13 13 13 13 13 12 12 13 12 12 11 11 10 10 10 11 11 11 11 10 10 9 8 7 7 7 7 7 5 5 5 6 6 7 8
13 14 14 13 13 13 13 13 12 12 12 12 12 11 11 12 11 11 10 9 9 9 9 10 10 10 11 9 8 8 7 6 6 6 6 5 6 5 4 4 4 5 6
14 13 13 13 13 13 13 12 12 11 11 11 10 10 10 10 10 10 9 8 8 8 8 8 9 9 10 9 7 6 5 5 5 5 5 5 4 4 3 2 3 3 4
13 13 13 13 12 12 11 11 11 10 10 10 9 9 9 9 9 9 8 7 7 7 7 7 8 8 8 8 7 5 5 4 5 5 4 4 4 3 2 2 1 1 3
13 13 13 12 12 11 11 10 9 9 9 8 8 8 8 8 8 8 7 6 6 7 6 6 5 5 5 6 5 5 4 4 4 3 3 2 2 2 1 1 1 1 1
12 12 12 12 11 11 10 9 8 8 7 7 7 7 7 7 7 7 6 5 5 5 4 4 3 2 3 5 5 4 4 3 4 2 2 1 1 1 1 0 0 0 0
11 12 12 11 11 10 10 9 9 8 7 7 6 6 6 6 6 6 5 5 4 4 3 3 2 1 0 1 1 0 1 3 3 2 2 1 -0 0 -1 -1 -0 -0 -0
10 10 11 11 11 11 11 9 8 8 6 6 5 5 5 5 5 5 4 4 3 3 2 1 1 1 -0 -0 -0 -0 0 -0 -1 2 1 0 -1 -2 -2 -1 -1 -1 -1
9 10 11 11 11 11 10 10 9 7 5 5 5 5 4 4 4 4 4 3 2 2 1 1 0 0 0 -1 -1 -1 -1 -1 -2 -1 1 -0 -2 -2 -2 -1 -1 -1 -2
9 10 11 11 10 10 10 10 9 8 7 6 5 4 4 3 3 3 3 3 2 1 1 0 -0 -1 -1 -2 -2 -2 -2 -2 -3 -3 -2 -2 -3 -3 -3 -2 -2 -2 -3
9 9 10 10 10 10 10 10 10 9 7 5 4 4 3 3 2 2 3 2 1 1 -0 -1 -1 -2 -2 -2 -2 -3 -4 -4 -4 -4 -3 -3 -3 -3 -2 -2 -2 -3 -3
Height
793 796 797 799 801 801 802 804 804 805 805 806 807 808 808 808 809 811 811 812 812 812 812 812 813 812 813 812 812 812 812 811 810 810 808 808 806 806 804 803 802 800 798
792 795 797 799 801 801 802 804 805 805 806 807 807 809 809 810 811 811 811 812 813 813 813 813 813 813 814 813 813 813 812 811 811 810 809 808 807 806 805 804 803 801 799
792 795 797 800 801 801 803 804 805 806 808 808 809 810 811 812 812 812 812 813 814 814 814 814 814 814 813 813 813 812 811 811 810 809 808 808 806 806 805 805 803 802 801
794 796 798 800 802 802 803 805 806 807 808 810 811 812 813 813 813 813 813 814 814 814 814 815 814 814 814 813 813 812 811 810 810 809 809 808 806 806 805 804 803 802 801
795 798 799 801 802 803 804 806 807 808 808 810 812 813 814 814 814 814 814 814 814 814 814 814 814 814 813 813 813 812 811 810 809 809 809 807 807 805 803 804 804 803 802
795 798 799 801 802 803 804 805 805 807 809 811 812 813 814 814 814 814 815 814 814 814 814 814 814 814 813 813 812 811 811 810 809 809 808 807 806 805 803 803 803 802 802
794 797 800 802 803 803 803 804 806 808 810 811 814 814 814 815 814 814 814 815 815 815 815 815 814 814 813 812 812 811 811 810 809 808 807 806 805 804 804 803 802 802 801
795 797 799 801 802 802 803 805 807 809 810 812 813 814 815 815 816 816 816 816 816 816 816 816 815 815 814 814 813 813 811 810 809 808 806 806 805 804 803 802 801 800 800
794 797 799 800 801 803 805 806 807 808 810 812 814 815 815 816 816 817 817 817 817 817 817 817 816 816 815 814 813 813 811 810 808 807 806 805 805 804 803 801 800 799 798
794 796 798 801 802 802 805 807 808 809 811 812 813 814 816 817 817 818 818 818 818 818 817 817 817 816 816 815 813 812 811 810 807 806 806 805 804 803 802 800 799 797 796
793 795 798 801 803 804 804 806 808 809 811 812 813 815 816 817 817 817 818 818 818 818 818 817 817 816 815 814 813 812 811 809 807 806 805 804 804 803 802 800 798 795 793
790 793 796 800 804 805 805 806 807 809 810 812 813 814 815 817 818 818 818 818 818 819 818 817 816 816 814 813 812 811 811 810 808 806 806 805 805 804 803 800 797 795 793
790 792 795 798 802 805 805 805 806 808 810 811 814 814 816 816 818 819 819 819 819 819 818 818 817 816 815 813 812 810 810 809 808 808 808 808 806 805 804 802 799 797 794
789 793 795 796 799 803 805 805 806 808 810 811 813 815 816 816 817 818 818 819 819 819 818 817 816 816 815 813 813 811 811 809 809 809 808 808 808 806 805 803 801 798 795
786 791 794 796 797 800 804 805 807 808 810 811 813 815 816 816 816 818 819 819 819 818 817 816 816 815 814 812 812 811 810 810 811 811 810 810 810 808 806 804 801 799 796
783 787 791 795 796 798 803 806 807 810 810 812 813 815 816 816 816 818 818 818 818 818 817 816 815 813 812 812 811 809 809 811 811 812 811 811 811 809 808 805 803 800 797
780 785 789 794 795 796 800 805 808 810 812 813 814 816 816 817 817 818 819 818 819 819 817 816 814 813 812 811 809 808 809 809 810 812 812 811 811 809 808 806 804 801 798
777 782 786 790 794 796 798 803 807 809 812 814 815 815 816 817 818 818 819 819 819 818 817 815 814 812 811 809 809 809 809 810 812 812 812 811 812 811 809 808 806 803 800
775 780 783 789 791 795 799 803 807 809 811 814 816 816 816 817 819 818 818 819 819 818 816 815 813 812 810 809 809 809 810 810 811 813 812 812 812 812 810 808 805 804 801
773 778 782 787 791 794 798 803 806 809 811 814 816 816 817 818 819 819 819 819 820 818 816 815 814 814 812 810 810 810 809 810 811 811 812 812 811 811 810 809 807 804 803
771 775 779 783 788 790 795 800 804 807 812 814 816 817 818 819 820 820 820 820 819 817 816 816 816 816 813 811 809 810 811 811 811 810 812 811 810 811 811 808 807 806 803
764 769 774 779 783 787 790 796 801 806 811 813 814 816 817 818 819 819 819 818 817 817 817 817 817 816 816 814 815 815 816 814 811 810 810 810 811 811 811 810 808 806 803
760 764 770 775 780 784 788 794 800 805 809 812 814 816 818 818 819 819 818 818 817 817 817 818 817 817 817 818 816 818 820 824 820 809 809 809 809 812 811 808 807 807 803
754 761 766 771 776 781 785 788 792 795 802 806 809 811 814 817 819 819 819 819 818 818 818 819 819 818 818 819 820 822 823 825 826 821 808 807 808 810 812 810 807 807 804
745 753 761 767 773 777 781 784 788 793 798 803 807 809 812 815 817 818 818 818 818 818 819 820 819 819 819 820 820 820 823 824 825 826 818 811 810 813 810 810 807 806 804
740 746 753 759 766 772 776 780 783 788 794 800 805 808 811 813 815 816 815 817 817 818 820 820 820 821 822 822 822 821 822 825 825 825 822 815 812 812 808 808 806 805 803
Wind_Speed
14 14 13 13 13 14 14 13 13 14 14 14 14 14 14 14 13 13 13 12 12 11 11 11 10 10 10 10 10 9 9 9 9 9 11 10 8 9 10 10 9 10 12
19 16 15 14 14 14 13 13 12 13 13 13 13 12 12 12 12 11 11 11 11 10 10 10 10 10 10 10 10 9 9 9 9 10 12 13 10 8 9 10 9 10 10
18 17 15 14 13 13 13 12 12 12 12 12 11 11 11 10 10 10 10 10 9 9 10 9 8 9 9 10 10 9 9 10 10 10 11 11 12 9 10 11 10 10 9
17 16 15 13 13 13 12 12 12 12 12 11 11 11 10 10 9 10 10 9 8 8 8 7 7 8 9 9 9 9 10 11 11 11 11 11 10 11 12 11 10 10 9
17 15 14 13 13 12 12 11 11 11 11 11 10 9 8 8 7 8 9 8 8 8 8 8 7 6 7 8 9 9 9 10 10 11 11 11 11 13 11 11 12 12 10
19 16 15 14 14 14 13 13 12 11 11 11 10 11 10 10 9 9 8 7 8 7 9 8 8 8 6 6 7 9 10 11 12 12 11 11 12 12 12 9 12 13 11
19 17 15 15 14 13 13 13 10 12 12 13 12 11 12 11 12 11 11 11 10 10 10 10 10 10 10 8 8 10 12 12 12 13 12 12 12 11 13 12 14 15 14
19 17 16 14 14 14 13 12 12 14 14 13 14 13 14 14 13 12 12 11 11 11 11 11 12 11 11 10 10 9 9 10 12 14 12 13 15 15 16 15 13 16 17
18 17 16 16 15 14 15 15 15 16 15 15 14 14 14 13 13 13 12 10 10 10 10 10 10 10 10 10 10 10 10 10 11 11 13 14 14 14 15 19 13 14 18
19 18 18 17 17 17 16 15 16 16 16 15 13 12 12 11 11 11 10 9 8 8 9 9 10 11 11 10 11 11 11 11 12 11 14 15 15 17 16 16 18 15 15
20 20 20 19 17 16 17 17 17 16 15 13 13 12 12 13 11 11 11 8 8 10 9 10 10 11 11 11 12 12 12 15 14 14 15 15 17 17 18 16 17 16 14
22 21 21 20 18 16 17 18 17 17 16 16 15 14 13 12 12 12 12 11 11 12 12 13 12 12 13 14 14 14 16 15 16 17 18 20 21 19 18 20 21 19 12
24 22 23 23 19 17 18 20 20 19 18 17 15 14 13 13 13 12 12 13 13 14 14 14 14 16 15 15 15 15 15 16 17 17 19 21 20 21 20 21 22 24 24
25 23 24 25 23 19 19 19 19 19 17 17 16 14 13 14 13 14 14 14 15 16 16 16 17 16 16 16 16 15 15 15 16 16 16 19 22 22 22 21 21 21 22
29 26 25 26 25 22 20 19 18 19 17 17 16 15 13 14 15 14 14 15 16 16 17 17 17 17 17 17 16 15 17 15 16 18 17 20 23 24 25 23 23 23 22
32 29 27 26 25 23 21 19 19 18 18 17 17 15 14 14 14 13 14 15 16 15 16 16 17 17 17 17 15 15 15 14 15 16 18 19 22 25 26 25 25 25 23
32 30 28 26 25 25 23 20 19 18 17 17 17 15 14 14 14 14 14 16 16 15 15 16 17 17 19 19 17 15 12 13 18 16 18 19 22 26 25 26 24 23 23
34 32 31 29 27 26 25 23 21 19 18 17 16 16 15 15 13 14 15 16 15 15 17 19 19 20 21 20 17 15 12 13 15 16 18 21 25 29 28 25 22 24 23
36 34 32 31 30 28 26 23 22 20 19 18 16 16 16 15 14 13 15 15 14 17 18 19 19 21 23 19 16 12 11 13 16 16 18 21 24 30 29 27 21 22 22
36 35 33 32 31 30 28 26 23 21 19 17 16 16 15 14 13 13 15 15 15 18 20 19 20 21 23 17 11 11 10 11 17 15 19 20 25 30 29 30 27 24 21
36 36 36 35 34 35 33 30 27 25 21 18 16 15 14 13 12 12 14 14 16 19 20 20 18 22 27 21 9 7 9 3 7 11 18 19 25 32 28 30 25 24 25
39 39 39 38 37 37 36 32 28 26 20 18 17 15 13 12 12 11 12 13 15 17 19 20 20 18 23 26 10 6 4 3 8 7 17 19 20 28 27 26 23 23 23
34 38 40 41 40 39 36 31 28 21 23 18 19 16 13 11 11 10 11 12 14 16 18 17 17 19 17 18 23 8 2 2 10 9 13 21 23 22 25 20 21 23 20
33 37 41 42 42 40 38 34 36 28 24 23 23 20 16 11 11 10 10 11 13 14 16 16 15 17 17 17 9 14 10 3 1 4 15 15 28 16 26 19 18 21 16
36 41 43 43 42 41 40 36 36 29 25 27 23 22 18 14 11 10 10 11 12 12 13 13 15 17 18 17 14 8 5 6 6 2 4 13 22 18 25 19 21 15 12
35 40 43 44 42 43 42 38 36 33 30 30 27 24 20 16 12 10 10 10 11 11 10 12 14 16 16 14 13 11 9 3 3 3 3 10 11 10 14 21 13 12 15
Wind_Direction
164 159 150 143 140 134 126 122 116 111 107 104 99 96 95 92 89 89 87 80 74 71 67 65 62 56 50 47 44 37 29 27 20 12 3 348 346 352 355 354 351 350 353
156 153 148 145 143 136 131 125 118 111 106 103 97 94 90 88 89 91 88 81 71 64 59 57 53 47 41 39 37 29 20 13 5 3 1 356 341 334 340 342 342 347 354
148 149 148 149 145 138 133 127 119 111 103 96 92 88 86 83 83 82 80 80 80 71 61 54 50 41 35 31 28 22 15 8 1 357 357 353 357 334 322 328 332 339 346
140 145 148 148 141 137 132 123 117 114 102 94 89 87 82 79 68 77 77 72 69 63 55 48 40 30 24 19 12 11 7 2 360 356 352 352 351 339 305 305 318 328 333
142 145 142 139 136 132 124 122 118 111 115 105 104 103 102 97 85 78 78 74 65 58 52 44 36 25 22 13 357 357 355 353 352 353 358 353 344 334 324 289 305 314 324
142 146 147 145 142 137 131 122 120 119 111 106 104 101 103 101 99 90 82 75 65 53 50 48 37 28 15 357 348 351 349 347 347 349 352 348 346 346 347 299 289 301 311
146 149 148 147 144 140 134 133 131 124 125 123 115 119 110 103 99 93 83 80 74 67 64 60 53 47 44 40 39 27 17 13 12 15 17 11 2 347 340 323 295 289 297
153 154 149 148 145 144 138 135 130 130 129 125 121 117 109 102 98 98 91 84 78 71 64 58 52 49 47 42 38 30 24 19 19 25 25 17 14 1 354 343 319 289 286
158 153 150 151 150 144 139 135 131 134 133 126 121 115 111 109 106 99 90 79 73 62 56 50 46 42 37 33 30 24 17 20 24 29 15 12 19 1 358 7 342 311 284
148 149 147 150 147 145 143 138 136 135 133 130 129 122 117 116 106 97 87 75 62 53 46 41 41 37 30 24 21 18 13 14 20 22 10 8 5 8 5 355 349 335 298
146 146 146 150 149 147 146 146 146 142 136 134 133 124 120 111 101 92 85 77 63 54 52 41 37 32 30 29 24 20 16 20 16 20 17 11 12 12 13 14 12 4 333
161 159 156 158 158 153 143 145 144 138 137 132 127 124 116 109 96 89 85 76 72 61 55 47 42 36 35 33 29 25 23 18 18 22 29 30 32 34 33 29 21 18 13
175 172 169 167 168 162 145 141 137 135 132 128 123 119 116 106 96 88 80 71 63 55 50 44 40 38 34 30 29 28 25 22 25 33 39 37 38 35 32 29 30 32 33
179 177 173 172 167 163 152 143 136 133 131 127 121 118 116 105 95 83 73 66 59 51 45 40 38 35 33 30 28 30 28 30 34 40 49 43 40 42 36 29 25 26 25
182 177 174 171 168 162 157 146 140 133 131 124 122 118 111 103 94 84 74 64 56 48 43 40 38 34 31 30 28 30 30 41 46 46 49 47 45 37 32 32 27 23 19
183 177 173 173 170 165 161 153 143 135 129 127 121 115 108 100 93 86 78 67 58 50 45 41 38 35 33 32 37 38 38 53 50 48 51 50 44 34 31 26 25 23 21
182 175 173 174 171 167 161 155 145 137 131 126 122 117 110 100 93 87 78 67 56 47 43 41 40 34 31 30 36 35 53 70 58 51 47 42 33 31 32 24 24 22 21
182 179 175 176 174 169 165 158 149 141 135 129 125 119 109 100 92 88 77 66 55 50 47 41 37 32 28 25 33 34 60 72 53 51 49 41 33 27 27 24 23 21 20
184 181 178 179 174 168 163 157 150 143 137 133 128 121 112 104 95 86 78 70 60 55 51 47 42 34 28 28 34 59 65 74 57 58 46 34 29 24 25 25 25 22 21
187 185 181 178 174 168 163 157 149 145 138 137 129 122 115 105 96 87 81 72 62 57 55 51 51 42 33 24 47 80 69 96 53 53 37 29 21 17 24 24 29 28 19
188 186 182 177 175 172 165 158 154 152 146 139 133 127 118 105 96 87 81 72 63 58 55 54 58 48 36 30 43 69 65 136 7 28 21 26 15 12 21 22 27 27 23
187 188 185 183 178 178 175 169 163 157 153 146 143 135 126 116 105 92 83 79 71 64 60 56 54 61 52 42 44 34 10 343 325 21 8 11 12 10 16 13 25 23 22
187 186 186 186 183 183 180 170 161 157 151 148 151 141 132 121 108 94 87 81 75 66 67 63 59 61 69 59 53 75 63 352 331 319 357 356 2 10 10 19 23 19 21
188 188 189 189 187 186 182 176 171 162 159 165 159 152 141 129 114 98 89 87 79 70 69 70 66 62 55 58 65 64 78 37 339 321 325 352 348 0 356 15 22 15 30
183 188 193 191 190 187 185 186 180 175 168 163 160 153 146 139 125 108 100 93 82 76 77 74 71 65 64 63 59 52 38 60 57 296 301 332 338 340 346 17 10 14 12
183 187 190 190 190 189 187 190 187 178 168 164 163 160 155 148 135 121 107 101 91 88 87 81 76 70 62 59 59 63 63 48 344 0 306 319 302 330 343 347 9 1 351